Retour au catalogue

FENGYUN 1C DEB

ActifSSO
NORAD 29946·DEBRIS·🇨🇳 China

Lancé May 10, 1999 depuis Taiyuan Satellite Launch Center

Loading…

Prochains Passages (prochaines 24 heures)

TLE

FraisSource: Space-Track

Époque: Sep 14, 2026, 09:56 UTC

1 29946U 99025JU  26257.41405002  .00000193  00000-0  13431-3 0  9991
2 29946  98.7992 247.6350 0079400 285.9928 234.5144 14.08457939  9154

Suivez FENGYUN 1C DEB en temps réel avec AllMySat

Download on the App Store